Weather Roundup
Issued by NWS

Home | Current Version | Previous Version | Text Only | Print | Product List | Glossary On
Versions: 1 2 3 4 5 6 7 8 9 10 11 12 13 14 15 16 17 18 19 20 21 22 23 24 25 26 27 28 29 30 31 32 33 34 35 36 37 38 39 40 41 42 43 44 45 46 47 48 49 50
000
NZUS93 KARX 101610
HRRWXR

CURRENT HOURLY OBSERVATIONS ACROSS
MUCH OF THE UPPER MISSISSIPPI VALLEY
NATIONAL WEATHER SERVICE LA CROSSE WI
1000 AM CST SUN DEC 10 2017


...SOUTHEAST MINNESOTA...


CITY           SKY/WX    TMP DP  RH WIND       PRES   REMARKS
ROCHESTER      CLOUDY    25  21  85 NW13      29.94R WCI  14
ROCHESTER/MAYO CLOUDY    25  20  83 NW9G16    29.95R WCI  15
WINONA           N/A     28  21  74 NW9       29.97  WCI  20
AUSTIN         CLOUDY    28  21  74 NW10G16   29.94R WCI  19
ALBERT LEA     CLOUDY    28  21  74 NW9G17    29.96R WCI  20
DODGE CENTER   CLOUDY    27  21  80 NW14      29.94R WCI  15
PRESTON        CLOUDY    24  20  82 N9        29.93R WCI  15
OWATONNA       NOT AVBL
FARIBAULT      CLOUDY    28  21  74 NW7       29.98R WCI  21
$$

...ELSEWHERE IN MINNESOTA...


CITY           SKY/WX    TMP DP  RH WIND       PRES   REMARKS
MINNEAPOLIS    CLOUDY    28  23  81 NW12      29.98R WCI  18
INTNL FALLS    CLOUDY    16  10  77 NW8       29.99R WCI   5
DULUTH         CLOUDY    18  13  80 NW10      29.92R WCI   6
RED WING       CLOUDY    27  18  69 NW5       29.96R WCI  21
REDWOOD FALLS  CLOUDY    30  20  66 NW14      30.01R WCI  19
MANKATO        SUNNY     29  23  78 NW15      30.00R WCI  18
WORTHINGTON    MOSUNNY   34  26  72 NW14      30.02R WCI  25
FAIRMONT       SUNNY     32  23  69 NW18G30   29.99R WCI  20
$$

...SOUTHWEST WISCONSIN...


CITY           SKY/WX    TMP DP  RH WIND       PRES   REMARKS
LA CROSSE      PTSUNNY   28  20  71 N7        29.93R WCI  21
PRAIRIE DU CHI PTSUNNY   27  19  69 NW8       29.94R WCI  19
BOSCOBEL       CLOUDY    26  18  71 CALM      29.93R
LONE ROCK      CLOUDY    26  19  74 W8        29.91R WCI  18
PLATTEVILLE    SUNNY     27  22  80 NW13      29.90R WCI  16
FORT MC COY    CLOUDY    26  20  80 NW7       29.92R WCI  18
CAMP DOUGLAS   CLOUDY    25  19  80 N9        29.89R WCI  15
MAUSTON-NEW LI CLOUDY    26  19  77 NW7       29.88S WCI  18
VIROQUA        CLOUDY    24  21  90 NW6       29.87S WCI  17
WIS DELLS      CLOUDY    25  18  74 NW5       29.88R WCI  19
$$

...ELSEWHERE IN WISCONSIN...


CITY           SKY/WX    TMP DP  RH WIND       PRES   REMARKS
MILWAUKEE      CLOUDY    27  17  66 W9        29.87F WCI  18
MADISON        CLOUDY    25  17  72 NW9       29.88R WCI  15
GREEN BAY      CLOUDY    21  18  88 NW8       29.87R WCI  11
EAU CLAIRE     CLOUDY    24  17  74 N7        29.94R WCI  16
BLACK RVR FLS  CLOUDY    26  18  71 N3        29.92R
MEDFORD        CLOUDY    19  17  91 NW8       29.86R WCI   9
WAUSAU         CLOUDY    20  17  88 NW5       29.85R WCI  13
WIS RAPIDS     CLOUDY    22  17  81 N6        29.89R WCI  14
MARSHFIELD     CLOUDY    21  18  88 NW10      29.86R WCI  10
RICE LAKE      CLOUDY    24  18  79 CALM      29.94R
$$

...NORTHEAST IOWA...


CITY           SKY/WX    TMP DP  RH WIND       PRES   REMARKS
WATERLOO       SUNNY     32  22  66 NW23      29.95R WCI  19
DUBUQUE        SUNNY     29  20  69 N14       29.89R WCI  18
DECORAH        CLOUDY    27  23  86 N13G18    29.91R WCI  16
MASON CITY     MOSUNNY   32  22  66 NW21      29.98R WCI  20
CHARLES CITY   PTSUNNY   30  25  80 NW15G22   29.95R WCI  19
OELWEIN        MOSUNNY   30  25  80 N22       29.94R WCI  17
$$

...ELSEWHERE IN IOWA...


CITY           SKY/WX    TMP DP  RH WIND       PRES   REMARKS
DES MOINES     CLOUDY    38  25  59 NW16G25   30.02R WCI  29
IOWA CITY      MOSUNNY   34  24  67 NW14      29.95R WCI  25
FORT DODGE     SUNNY     36  25  64 NW10G18   30.01R WCI  28
MARSHALLTOWN   MOSUNNY   35  25  66 NW20G29   29.97R WCI  24
CEDAR RAPIDS   CLOUDY    33  24  69 NW21      29.92R WCI  21
$$

...NORTHERN ILLINOIS...


CITY           SKY/WX    TMP DP  RH WIND       PRES   REMARKS
CHICAGO-OHARE  PTSUNNY   29  17  61 SW15G23   29.89S WCI  18
CHICAGO-MIDWAY PTSUNNY   30  19  63 SW15G23   29.91S WCI  19
MOLINE         SUNNY     33  21  61 W12G20    29.92R WCI  24
ROCKFORD       CLOUDY    29  18  63 W10       29.91S WCI  20
PEORIA         CLOUDY    32  20  61 SW12      29.95F WCI  23
$$

NOTE: "FAIR" INDICATES FEW OR NO CLOUDS BELOW 12,000 FEET WITH NO
SIGNIFICANT WEATHER AND/OR OBSTRUCTIONS TO VISIBILITY. WIND
SPEEDS ARE IN MILES-PER-HOUR.




USA.gov is the U.S. government's official web portal to all federal, state and local government web resources and services.